Location: Township of South Roscoe
(37.9570°N, 100.1180°W)
Time: 04:25:51
(UTC+00:00)

PRISM - Pass Details

Date: 01 July 2022
Orbit: 554 x 578 km, 98.2° (Epoch: 14 August)

Event Time Altitude Azimuth Distance (km) Brightness Sun altitude
Rises 10:39:27 0° 34° (NNE) 2,742 ? -7.7°
Reaches altitude 10° 10:42:23 10° 58° (ENE) 1,840 ? -7.3°
Maximum altitude 10:44:43 15° 94° (E) 1,537 ? -6.9°
Drops below altitude 10° 10:47:02 10° 130° (SE) 1,831 ? -6.6°
Sets 10:49:56 0° 154° (SSE) 2,721 ? -6.1°
